Location: Bednik
(45.3500°N, 16.3833°E)
Time: 23:59:23
(UTC+00:00)

COSMOS 2428 - Pass Details

Date: 08 August 2020
Orbit: 844 x 859 km, 70.9° (Epoch: 23 September)

Event Time Altitude Azimuth Distance (km) Brightness Sun altitude
Rises 22:13:35 0° 338° (NNW) 3,433 7.1 -28.0°
Reaches altitude 10° 22:16:13 10° 346° (NNW) 2,495 6.1 -28.1°
Maximum altitude 22:21:36 40° 55° (NE) 1,242 3.7 -28.2°
Enters shadow 22:22:35 37° 80° (E) 1,304 3.6 -28.3°
